User: anonymous   Login
Location: Campillo
(40.8621°N, 4.2488°W)
Time: 22:41:59
(UTC+00:00)
Language:

Meteor 2-6 Rocket - Orbit

View from above orbital plane
View from above orbital plane
View from above satellite
View from above satellite

Ground track
Ground track

The orbit data is extracted from the following two-line orbital elements,

1 11963U 80073B   21204.23027803  .00000019  00000-0  34207-5 0  9993
2 11963  81.2771 113.2907 0075460 160.3436 200.0672 14.09733945101189
Epoch (UTC): 23 July 2021 05:31:36
Eccentricity: 0.0075460
inclination: 81.2771°
perigee height: 805 km
apogee height: 915 km
right ascension of ascending node: 113.2907°
argument of perigee: 160.3436°
revolutions per day: 14.09733945
mean anomaly at epoch: 200.0672°
orbit number at epoch: 10118

The dashed part of the orbit path shows where the satellite is in the earth's shadow,  

DLR